Regional Weather Roundup
Issued by NWS

Home | Current Version | Previous Version | Text Only | Print | Product List | Glossary On
Versions: 1 2 3 4 5 6 7 8 9 10 11 12 13 14 15 16 17 18 19 20 21 22 23 24 25 26 27 28 29 30 31 32 33 34 35 36 37 38 39 40 41 42 43 44 45 46 47 48 49 50
000
ASUS43 KMKX 280100
RWRWI

WISCONSIN REGIONAL WEATHER ROUNDUP
NATIONAL WEATHER SERVICE MILWAUKEE/SULLIVAN WI
800 PM CDT MON APR 27 2015

NOTE: "FAIR" INDICATES FEW OR NO CLOUDS BELOW 12,000 FEET WITH NO
SIGNIFICANT WEATHER AND/OR OBSTRUCTIONS TO VISIBILITY.

WIZ001-002-006>008-014>016-023>028-280200-
NORTHWEST WISCONSIN

CITY           SKY/WX    TMP DP  RH WIND       PRES   REMARKS
SUPERIOR ARPT  PTCLDY    44  32  62 NE9       30.15S
ASHLAND        CLEAR     45  35  68 N3        30.16S
HAYWARD        CLEAR     60  27  28 E6        30.14S
SIREN          CLEAR     66  22  19 CALM      30.13S
CUMBERLAND     CLEAR     61  27  27 N5        30.13S
RICE LAKE      CLEAR     63  27  25 N5        30.14S
CHETEK         CLEAR     62  32  33 N8        30.12S
LADYSMITH      CLEAR     59  28  29 NE10      30.15S
EAU CLAIRE     CLEAR     63  28  26 NW7       30.10S
MENOMONIE      CLEAR     64  26  23 NW6       30.11S
NEW RICHMOND   CLEAR     64  23  21 N5        30.13S
OSCEOLA        CLEAR     66  23  19 CALM      30.15S
$$

WIZ003>005-009-010-017-018-280200-
NORTH CENTRAL WISCONSIN

CITY           SKY/WX    TMP DP  RH WIND       PRES   REMARKS
MANITOWISH WTR CLEAR     54  27  36 N3        30.15F
ARBOR VITAE    CLEAR     57  28  32 N6        30.15S
WOODRUFF       CLEAR     57  28  32 N6        30.15S
RHINELANDER    CLEAR     54  27  35 N3        30.15R
EAGLE RIVER    CLEAR     53  23  31 N7        30.15R
LAND O LAKES   CLEAR     53  21  29 N6        30.16R
PHILLIPS       CLEAR     55  27  34 NE8       30.14S
TOMAHAWK       CLEAR     57  27  32 CALM      30.14R
MEDFORD        CLEAR     58  31  36 N7        30.12S
MERRILL        CLEAR     59  30  33 N10G16    30.12R
$$

WIZ029-030-035-036-043>047-280200-
CENTRAL WISCONSIN

CITY           SKY/WX    TMP DP  RH WIND       PRES   REMARKS
WAUSAU         CLEAR     60  23  24 N10       30.09R
MOSINEE        CLEAR     61  28  29 N12       30.11S
MARSHFIELD     CLEAR     62  30  29 N8        30.10S
STEVENS POINT  CLEAR     61  27  27 N9        30.09S
WAUPACA        CLEAR     59  35  40 CALM      30.09R
WAUTOMA        NOT AVBL
WISC RAPIDS    CLEAR     60  26  27 N8        30.09S
CAMP DOUGLAS   NOT AVBL
$$

WIZ011>013-019>022-031-037>040-048>050-280200-
NORTHEAST WISCONSIN

CITY           SKY/WX    TMP DP  RH WIND       PRES   REMARKS
ANTIGO         CLEAR     55  31  39 N9        30.11S
SHAWANO        CLEAR     53  35  50 E8        30.11R
OCONTO         CLEAR     47  36  65 SE7       30.13R
STURGEON BAY   CLEAR     45  30  57 SE5       30.16R
GREEN BAY      CLEAR     49  35  58 E9        30.12R
MANITOWOC      NOT AVBL
APPLETON       CLEAR     54  36  50 SE14      30.10R
CLINTONVILLE   CLEAR     55  34  44 E8        30.09R
OSHKOSH        CLEAR     51  37  58 E10       30.09R
$$

WIZ032>034-041-042-053>061-280200-
SOUTHWEST WISCONSIN

CITY           SKY/WX    TMP DP  RH WIND       PRES   REMARKS
LA CROSSE      CLEAR     63  32  31 N6        30.09S
SPARTA         CLEAR     64  29  27 NW6       30.10S
VIROQUA        CLEAR     59  32  35 NW6       30.10S
BOSCOBEL       CLEAR     62  32  32 NW5       30.09S
PRAIRIE DU CHI CLEAR     63  30  28 NW7       30.09F
PLATTEVILLE    CLEAR     61  33  35 N6        30.09S
$$

WIZ056-057-062-063-064-067-068-280200-
SOUTH CENTRAL WISCONSIN

CITY           SKY/WX    TMP DP  RH WIND       PRES   REMARKS
REEDSBURG      CLEAR     62  33  34 N5        30.08S
BARABOO/DELLS  CLEAR     63  27  25 N6        30.08S
LONE ROCK      NOT AVBL
MINERAL POINT  CLEAR     61  28  29 N5        30.08F
MADISON        PTCLDY    60  30  32 NW3       30.06F
MIDDLETON      CLEAR     62  30  30 N7        30.08S
WATERTOWN      CLEAR     53  38  56 E5        30.08S
MONROE         CLEAR     59  32  36 N5        30.07S
JANESVILLE     PTCLDY    57  34  41 E9        30.07S
$$

WIZ051-052-058>065-066-070>072-280200-
SOUTHEAST WISCONSIN

CITY           SKY/WX    TMP DP  RH WIND       PRES   REMARKS
MILWAUKEE      PTCLDY    43  31  62 NE5       30.13S
WAUKESHA       CLEAR     45  34  65 E12       30.12R
MILWAUKEE/TIMM CLEAR     46  30  53 NE5       30.12S
RACINE         CLEAR     42  32  67 N3        30.14R
BURLINGTON     CLEAR     46  34  62 E8        30.11R
KENOSHA        PTCLDY    44  33  65 NE5       30.12R
FOND DU LAC    CLEAR     52  36  54 SE9       30.09R
SHEBOYGAN      CLEAR     40  32  73 NE5       30.12S
WEST BEND      CLEAR     45  32  61 E5        30.11R
JUNEAU         CLEAR     53  37  56 E9        30.09S
$$

LSZ147-162-280200-
LAKE SUPERIOR

STATION/POSITION TIME  TEMP    WIND        PRES    WAVE
                       AIR SEA DIR/SP/G            HT/PER
                 (UTC) (F)     (DEG/KT/KT) (MB)    (FT/S)
W MID LAKE BUOY  2350   37 35  360/  4/  4 1023.4F   0
DEVILS ISLAND    0000   51     140/  6/  7 1022.0R
PORT WING        0000   42     360/  6/  9 1021.0
SAXON HARBOR     0040   48        CALM     1021.0F
$$

LMZ867-665-643>646-280200-
LAKE MICHIGAN

STATION/POSITION TIME  TEMP    WIND        PRES    WAVE
                       AIR SEA DIR/SP/G            HT/PER
                 (UTC) (F)     (DEG/KT/KT) (MB)    (FT/S)
CHAMBERS ISLAND  0000   46      60/ 12/ 17 1020.0R
NORTHPORT PIER   0000   48      30/  9/ 13 1020.0S
SISTER BAY       0002   50      70/  7/ 11   N/A
KEWAUNEE LAKESHO 0000   44      CALM  /  3 1019.5R
SHEBOYGAN LAKESH 0000   43      20/  5/  6 1020.6F
PORT WASHINGTON  0040   46      40/  5/  7 1020.7F
MILWAUKEE LAKESH 0000   44      40/  7/  8   N/A
KENOSHA   LAKESH 0000   44      10/  7/  8 1019.6F
$$

TC  - TEMPERATURE IN CELSIUS
VSB - VISIBILITY IN STATUTE MILES
WCI - WIND CHILL INDEX
HX  - HEAT INDEX



USA.gov is the U.S. government's official web portal to all federal, state and local government web resources and services.